Oujda, Morocco

12:40 AM WEST on July 24, 2017 (GMT +0100)
Oujda

Weather History for GMFO - November, 2013

Change the Weather History Date:

Monday, November 25, 2013

  Actual Average Record
Temperature  
Mean Temperature 48 °F -  
Max Temperature 62 °F 61 °F 78 °F (2006)
Min Temperature 35 °F 42 °F 32 °F (1999)
Degree Days  
Heating Degree Days 16    
Moisture  
Dew Point 38 °F    
Average Humidity 72    
Maximum Humidity 93    
Minimum Humidity 35    
Precipitation  
Precipitation 0.00 in 0.06 in - ()
Sea Level Pressure  
Sea Level Pressure 30.05 in    
Wind  
Wind Speed 4 mph ()    
Max Wind Speed 12 mph    
Max Gust Speed -    
Visibility 6.6 miles    
Events      
Averages and records for this station are not official NWS values.
T = Trace of Precipitation, MM = Missing Value Source: Averaged Metar Reports

Daily Weather History Graph

Daily Weather History Graph

Search for Another Location

Airport or City:

Trip Planner

Search our weather history database for the weather conditions in past years. The results will help you decide how hot, cold, wet, or windy it might be!

Date:

Astronomy

Nov. 25, 2013 Rise Set
Actual Time 6:51 AM WET 4:57 PM WET
Civil Twilight 6:23 AM WET 5:25 PM WET
Nautical Twilight 5:53 AM WET 5:56 PM WET
Astronomical Twilight 5:22 AM WET 6:26 PM WET
Moon 11:58 PM WET (11/25) 12:09 PM WET (11/25)
Length of Visible Light 11h 01m
Length of Day
10h 06m
Waning Gibbous, 53% of the Moon is Illuminated
Nov 25
Waning Gibbous
Nov 25
Last Quarter
Dec 3
New
Dec 9
First Quarter
Dec 17
Full

Hourly Weather History & Observations

Time (WET) Temp. Windchill Dew Point Humidity Pressure Visibility Wind Dir Wind Speed Gust Speed Precip Events Conditions
12:00 AM 44 °F - 39 °F 76% 29.99 in 6 mi SSW 2.3 mph - -   Partly Cloudy
12:00 AM 44.6 °F - 39.2 °F 81% 29.95 in 6.2 mi SSW 2.3 mph - N/A   Scattered Clouds
2:00 AM 41.0 °F 37.1 °F 37.4 °F 87% 29.95 in 6.2 mi SW 5.8 mph - N/A   Partly Cloudy
3:00 AM 39 °F - 36 °F 87% 30.02 in 6 mi WSW 5.8 mph - -  
3:00 AM 39.2 °F 35.0 °F 37.4 °F 93% 29.98 in - WSW 5.8 mph - N/A   Clear
5:00 AM 37.4 °F 34.9 °F 33.8 °F 87% 29.98 in - WSW 3.5 mph - N/A   Clear
6:00 AM 35 °F - 33 °F 90% 30.06 in 9 mi South 4.6 mph - -  
6:00 AM 35.6 °F 31.7 °F 33.8 °F 93% 29.98 in - South 4.6 mph - N/A   Clear
8:00 AM 39.2 °F - 37.4 °F 93% 30.04 in - SW 2.3 mph - N/A   Clear
8:46 AM 42 °F - 40 °F 89% 30.11 in 9 mi Calm Calm - -  
9:00 AM 41.0 °F - 39.2 °F 93% 30.06 in - Calm Calm - N/A   Clear
10:00 AM 48.2 °F - 44.6 °F 87% 30.06 in 6.2 mi Calm Calm - N/A   Partly Cloudy
11:46 AM 55 °F - 36 °F 37% 30.06 in 6 mi NE 3.5 mph - -   Scattered Clouds
12:00 PM 55.4 °F - 37.4 °F 51% 30.06 in 6.2 mi NE 3.5 mph - N/A   Partly Cloudy
1:00 PM 57.2 °F - 37.4 °F 48% 30.04 in 6.2 mi NNE 3.5 mph - N/A   Partly Cloudy
2:00 PM 59.0 °F - 35.6 °F 42% 30.04 in 6.2 mi East 9.2 mph - N/A   Partly Cloudy
2:49 PM 58 °F - 38 °F 35% 30.03 in 6 mi ENE 11.5 mph - -   Scattered Clouds
3:00 PM 59.0 °F - 37.4 °F 45% 30.04 in 6.2 mi ENE 11.5 mph - N/A   Partly Cloudy
4:00 PM 57.2 °F - 41.0 °F 55% 30.04 in 6.2 mi ENE 11.5 mph - N/A   Partly Cloudy
6:00 PM 51 °F - 42 °F 63% 30.10 in 7 mi North 5.8 mph - -   Partly Cloudy
9:00 PM 44 °F - 40 °F 80% 30.16 in 9 mi WSW 4.6 mph - -   Partly Cloudy
9:00 PM 62.6 °F - 39.2 °F 42% 30.12 in 6.2 mi WSW 4.6 mph - N/A   Scattered Clouds
10:00 PM 44.6 °F 42.2 °F 42.8 °F 93% 30.12 in 6.2 mi WSW 4.6 mph - N/A   Scattered Clouds
11:00 PM 44.6 °F - 41.0 °F 87% 30.12 in 6.2 mi Variable 2.3 mph - N/A   Scattered Clouds